UZB90 UZST-UZTT

Flight info

Callsign UZB90
Flight time N/A
Altitude 33000
Route FIZLE2A FIZLE Y300 ARPIZ/K0845F350 Y300 USETU/K0846F340 M741 RONVU/K0839F350 Q325 TITAR Y92 NETAT M168 KUFIM KUFIM2T
Aircraft B752/M-SDE2E3FGHIJ3J4J7RWXY/LB1

Departure

Time N/A
Airport UZST

Arrival

Time 2026-04-25 14:03
Airport Tashkent International Airport (UZTT)
Time Latitude Longitude Altitude Speed Heading
2026-04-25 13:40 40.51420 68.27143 25911 ft 417 kts 43°
2026-04-25 13:40 40.53471 68.29834 25214 ft 418 kts 43°
2026-04-25 13:41 40.55441 68.32422 24545 ft 418 kts 43°
2026-04-25 13:41 40.57441 68.35053 23865 ft 418 kts 43°
2026-04-25 13:41 40.59439 68.37682 23186 ft 418 kts 43°
2026-04-25 13:41 40.61454 68.40344 22483 ft 408 kts 44°
2026-04-25 13:42 40.63227 68.42838 21810 ft 381 kts 46°
2026-04-25 13:42 40.64978 68.45340 21116 ft 370 kts 45°
2026-04-25 13:42 40.66669 68.47746 20435 ft 364 kts 45°
2026-04-25 13:42 40.68364 68.50160 19732 ft 356 kts 45°
2026-04-25 13:43 40.70026 68.52528 19041 ft 354 kts 46°
2026-04-25 13:43 40.71432 68.54533 18450 ft 350 kts 46°
2026-04-25 13:43 40.73038 68.56825 17766 ft 346 kts 46°
2026-04-25 13:43 40.74638 68.59109 17078 ft 342 kts 46°
2026-04-25 13:44 40.76173 68.61303 16408 ft 336 kts 46°
2026-04-25 13:44 40.77660 68.63430 15738 ft 325 kts 46°
2026-04-25 13:44 40.79073 68.65453 15326 ft 308 kts 46°
2026-04-25 13:44 40.80485 68.67464 14987 ft 306 kts 44°
2026-04-25 13:45 40.82015 68.69146 14663 ft 303 kts 34°
2026-04-25 13:45 40.83720 68.70727 14316 ft 301 kts 34°
2026-04-25 13:45 40.85326 68.72229 13985 ft 299 kts 34°
2026-04-25 13:46 40.88363 68.75063 13355 ft 296 kts 34°
2026-04-25 13:46 40.90025 68.76614 13008 ft 295 kts 34°
2026-04-25 13:46 40.91685 68.78162 12674 ft 298 kts 34°
2026-04-25 13:46 40.93357 68.79723 12328 ft 297 kts 34°
2026-04-25 13:47 40.95006 68.81262 11985 ft 296 kts 34°
2026-04-25 13:47 40.96666 68.82815 11638 ft 294 kts 34°
2026-04-25 13:47 40.98319 68.84360 11291 ft 293 kts 34°
2026-04-25 13:47 40.99962 68.85895 10946 ft 292 kts 34°
2026-04-25 13:48 41.01605 68.87434 10599 ft 291 kts 35°
2026-04-25 13:48 41.03231 68.88957 10256 ft 291 kts 35°
2026-04-25 13:48 41.04866 68.90488 9910 ft 290 kts 35°
2026-04-25 13:48 41.06498 68.92020 9564 ft 289 kts 36°
2026-04-25 13:49 41.08113 68.93536 9221 ft 288 kts 36°
2026-04-25 13:49 41.09747 68.95070 8874 ft 288 kts 36°
2026-04-25 13:49 41.11209 68.96739 8535 ft 285 kts 53°
2026-04-25 13:49 41.12051 68.98971 8216 ft 280 kts 77°
2026-04-25 13:50 41.12418 69.01393 7887 ft 278 kts 82°
2026-04-25 13:50 41.12727 69.03801 7603 ft 275 kts 82°
2026-04-25 13:50 41.13024 69.06206 7382 ft 270 kts 82°
2026-04-25 13:50 41.13312 69.08623 7156 ft 266 kts 83°
2026-04-25 13:51 41.13594 69.11042 6926 ft 261 kts 83°
2026-04-25 13:51 41.13867 69.13402 6698 ft 258 kts 83°
2026-04-25 13:51 41.14133 69.15718 6472 ft 254 kts 83°
2026-04-25 13:51 41.14383 69.17911 6254 ft 251 kts 83°
2026-04-25 13:52 41.14638 69.20149 6031 ft 248 kts 83°
2026-04-25 13:52 41.14892 69.22389 5804 ft 245 kts 83°
2026-04-25 13:52 41.15144 69.24612 5577 ft 243 kts 83°
2026-04-25 13:52 41.15393 69.26817 5350 ft 241 kts 83°
2026-04-25 13:53 41.15638 69.28994 5126 ft 238 kts 83°
2026-04-25 13:53 41.15870 69.31052 5007 ft 231 kts 83°
2026-04-25 13:53 41.16099 69.33081 4925 ft 223 kts 83°
2026-04-25 13:53 41.16322 69.35068 4846 ft 220 kts 83°
2026-04-25 13:54 41.16540 69.37015 4773 ft 220 kts 83°
2026-04-25 13:54 41.16765 69.39030 4696 ft 219 kts 83°
2026-04-25 13:54 41.16989 69.41034 4620 ft 219 kts 83°
2026-04-25 13:54 41.17212 69.43038 4544 ft 219 kts 83°
2026-04-25 13:55 41.17430 69.44996 4470 ft 218 kts 82°
2026-04-25 13:55 41.17644 69.46918 4387 ft 218 kts 82°
2026-04-25 13:55 41.17866 69.48916 4286 ft 218 kts 82°
2026-04-25 13:55 41.18113 69.50880 4184 ft 218 kts 74°
2026-04-25 13:56 41.18896 69.52550 4102 ft 220 kts 40°
2026-04-25 13:56 41.20166 69.53350 4065 ft 212 kts 11°
2026-04-25 13:56 41.22681 69.53735 3881 ft 197 kts
2026-04-25 13:57 41.23962 69.53909 3777 ft 187 kts
2026-04-25 13:57 41.24778 69.54015 3669 ft 189 kts
2026-04-25 13:57 41.26389 69.54215 3538 ft 185 kts
2026-04-25 13:57 41.27539 69.53961 3477 ft 175 kts 330°
2026-04-25 13:58 41.28307 69.52763 3435 ft 175 kts 288°
2026-04-25 13:58 41.28343 69.51262 3394 ft 172 kts 258°
2026-04-25 13:58 41.28126 69.49734 3347 ft 170 kts 258°
2026-04-25 13:58 41.27937 69.48231 3298 ft 170 kts 259°
2026-04-25 13:59 41.27768 69.46825 3240 ft 162 kts 259°
2026-04-25 13:59 41.27428 69.43887 3114 ft 145 kts 259°
2026-04-25 13:59 41.27287 69.42645 3094 ft 144 kts 259°
2026-04-25 14:00 41.27158 69.41514 3051 ft 142 kts 259°
2026-04-25 14:00 41.26917 69.38966 2732 ft 139 kts 262°
2026-04-25 14:00 41.26794 69.37663 2574 ft 141 kts 260°
2026-04-25 14:01 41.26663 69.36381 2426 ft 140 kts 261°
2026-04-25 14:01 41.26541 69.35090 2266 ft 139 kts 261°
2026-04-25 14:01 41.26419 69.33785 2050 ft 141 kts 261°
2026-04-25 14:01 41.26295 69.32507 1848 ft 140 kts 261°
2026-04-25 14:02 41.26168 69.31221 1640 ft 140 kts 261°
2026-04-25 14:02 41.26044 69.29964 1479 ft 139 kts 261°
2026-04-25 14:02 41.25907 69.28684 1431 ft 139 kts 260°
2026-04-25 14:02 41.25824 69.27921 1428 ft 98 kts 262°
2026-04-25 14:03 41.25744 69.27185 1428 ft 24 kts 259°
2026-04-25 14:03 41.25718 69.26981 1428 ft 22 kts 263°
2026-04-25 14:03 41.25700 69.26791 1428 ft 20 kts 262°
2026-04-25 14:03 41.25682 69.26623 1428 ft 19 kts 261°
2026-04-25 14:04 41.25662 69.26457 1428 ft 18 kts 261°
2026-04-25 14:04 41.25648 69.26320 1428 ft 17 kts 262°
2026-04-25 14:04 41.25630 69.26154 1428 ft 16 kts 262°
2026-04-25 14:04 41.25614 69.26009 1428 ft 15 kts 261°
2026-04-25 14:05 41.25600 69.25881 1428 ft 14 kts 259°
2026-04-25 14:05 41.25551 69.25802 1428 ft 13 kts 188°
2026-04-25 14:05 41.25480 69.25809 1428 ft 10 kts 172°
2026-04-25 14:05 41.25422 69.25824 1428 ft 9 kts 163°
2026-04-25 14:06 41.25377 69.25864 1428 ft 9 kts 126°
2026-04-25 14:06 41.25354 69.25923 1428 ft 8 kts 115°
2026-04-25 14:06 41.25334 69.25988 1428 ft 7 kts 111°
2026-04-25 14:06 41.25315 69.26051 1428 ft 7 kts 112°
2026-04-25 14:07 41.25292 69.26127 1428 ft 7 kts 111°
2026-04-25 14:07 41.25275 69.26182 1428 ft 7 kts 112°
2026-04-25 14:07 41.25254 69.26229 1428 ft 6 kts 142°
2026-04-25 14:07 41.25218 69.26249 1428 ft 6 kts 143°
2026-04-25 14:08 41.25204 69.26282 1428 ft 4 kts 102°
2026-04-25 14:08 41.25202 69.26327 1428 ft 4 kts 83°
2026-04-25 14:08 41.25211 69.26358 1428 ft 3 kts 49°
2026-04-25 14:08 41.25228 69.26366 1428 ft 2 kts
2026-04-25 14:09 41.25249 69.26366 1428 ft 1 kts 360°
2026-04-25 14:09 41.25258 69.26366 1428 ft 0 kts 360°
2026-04-25 14:09 41.25251 69.26366 1428 ft 0 kts 360°
2026-04-25 14:10 41.25247 69.26366 1428 ft 0 kts 359°